Showing default

HULIANWANG DIGUI-22, 63689

Orbit data source: Space-Track

HULIANWANG DIGUI-22, 63689 is a payload satellite owned by Zhongguo Xingwang (CN) in LEO that was launched on Mon, 28 Apr 2025 UTC via a CHANG ZHENG 5B/YZ-2 launch vehicle from the Wenchang Satellite Launch Center (WSC). Payload-class satellites include a variety of spacecraft equipped with specific instruments for various scientific and technological missions. These include communications satellites like Starlink; space stations such as the ISS; scientific satellites like the Hubble; Earth observation satellites from companies like Planet Labs, Umbra, and HawkEye 360; GPS; miniature CubeSats for education and research; and military/defense satellites.

Loading next visibility...
Identifier
63689, 2025-086C
Orbit
LEO
Country
Flag of CNCN / PRC
Related business
Manufacturer
CAST?
Mission
Operational Civil Communications
Bus & Motor
XINGWANG CL, Unknown motor
Mass
~800 kg wet, ~800 kg dry
Launch date (UTC)
2025-04-28 (1 year ago)
Launch vehicle
CHANG ZHENG 5B/YZ-2
Launch site
Wenchang Satellite Launch Center (WSC)
Object type
Payload
Rocket body
Debris
Shape & HBR
Box + 2 Pan, 5.0 m
Radar Cross Section
5.935 m², Large (>1 m²)

Expand to show TLE details & history
Last TLE update: 10 hours ago

TLE from 10 hours ago
0 HULIANWANG DIGUI-22
1 63689U 25086C   26171.43952672  .00000025  00000-0  24638-4 0  9992
2 63689  86.5045 311.9620 0001509 110.6476 249.4820 13.24409438 55292
Epoch: 2026-06-20T10:32Z
TLE epoch observation values (Epoch: 2026-06-20T10:32:55.108Z)
Latitude
-0.00002°
Longitude
-114.92175°
Altitude
1,171.218 km
Speed
7.268 km/s
True Right ascension
20h 47m 50s
True Declination
0° 00' 00"
Sunlit
Object was in full shadow at epoch
Visualization orbit readout
Latitude
Unknown
Longitude
Unknown
Altitude
Unknown
Speed
Unknown
Apparent Right ascension
Unknown
Apparent Declination
Unknown
Sunlit
N/A
Visualization observer readout
Local Sidereal Time
07:17:04
Azimuth
Unknown
Elevation
Unknown
Doppler factor
Unknown
Orbital elements
Apogee altitude
1,166.182 km
Perigee altitude
1,163.906 km
Semi-major axis
7,543.181 km
Eccentricity
0.00015
Inclination
86.5045°
RAAN
311.962°
Arg. of periapsis
110.6476°
True anomaly
249.46581°
Mean anomaly
249.482°
Eccentric anomaly
249.4739°
Mean motion
3.31292 °/min
Orbital period
108.67 mins
BSTAR
0.000024638
Loading maneuver chart data...
Computing Atmospheric mass density...
Loading historical data...
Loading historical data...
Loading historical data...
Loading historical data...
Loading historical data...
Loading historical data...
Loading historical data...

Documentation

Showing up to 5 results
|